STARLINK-5764 (55602 NORAD) Tracking and Keplerian Element Data

This shows tracking and keplerian element data for the satellite.

Feedback or suggestion? Click here.




ElementValue
Catalog55602
NameSTARLINK-5764
Epoch Orbit130
Epoch Day84.91667824
Epoch Year2023
RAAN105.0905
Inclination42.9997
Eccentricity0.0001274
Argument of Perigee260.8813
Mean Anonmoly333.3099
Mean Motion15.5111914
Decay Rate-0.00863464
L11 55602U 23020AK 23084.91667824 -.00863464 00000+0 -15837-1 0 9992
L22 55602 42.9997 105.0905 0001274 260.8813 333.3099 15.51119140 1304



Live tracking and technical data element details for STARLINK-5764 (NORAD 55602). STARLINK-5764 can be tracked NOW for your location showing map with azimuth and elevation plus other details from your city location.







IsCatalogInMostPopularTable: catalog: 55602, numindb: -1

Insert: records affected: 1


GetName: 55602 STARLINK-5764

Hit Count: inserted at: Tue, 28 Mar 2023 02:54:56 GMT